| time (UTC) | temp C | wind direction | speed KPH | gust KPH | rain 1hr cm | rain 24hr cm | rain mn cm | humidity % | barometer mb |
| 20260506143004 | 21 | 7 | 4.8 | 19.3 | 0.00 | 0.00 | 0.00 | 66 | 1005.8 |
| 20260506142004 | 21 | 2 | 9.7 | 19.3 | 0.00 | 0.00 | 0.00 | 66 | 1006.0 |
| 20260506141502 | 21 | 356 | 4.8 | 12.9 | 0.00 | 0.00 | 0.00 | 66 | 1005.9 |
| 20260506140003 | 21 | 12 | 4.8 | 14.5 | 0.00 | 0.00 | 0.00 | 66 | 1005.9 |
| 20260506135005 | 21 | 14 | 4.8 | 16.1 | 0.00 | 0.00 | 0.00 | 67 | 1006.0 |
| 20260506133503 | 21 | 4 | 9.7 | 19.3 | 0.00 | 0.00 | 0.00 | 67 | 1006.2 |
| 20260506133004 | 21 | 11 | 9.7 | 19.3 | 0.00 | 0.00 | 0.00 | 66 | 1006.0 |
| 20260506132503 | 20 | 26 | 8.0 | 16.1 | 0.00 | 0.00 | 0.00 | 67 | 1006.0 |
| 20260506131505 | 20 | 21 | 3.2 | 11.3 | 0.00 | 0.00 | 0.00 | 68 | 1006.2 |
| 20260506131003 | 20 | 13 | 4.8 | 14.5 | 0.00 | 0.00 | 0.00 | 69 | 1006.1 |
| 20260506125502 | 20 | 6 | 6.4 | 12.9 | 0.00 | 0.00 | 0.00 | 69 | 1005.8 |
| 20260506125003 | 20 | 42 | 4.8 | 19.3 | 0.00 | 0.00 | 0.00 | 69 | 1005.8 |
| 20260506124002 | 19 | 44 | 4.8 | 16.1 | 0.00 | 0.00 | 0.00 | 70 | 1005.8 |
| 20260506123004 | 19 | 21 | 4.8 | 14.5 | 0.00 | 0.00 | 0.00 | 71 | 1005.9 |
| 20260506122502 | 19 | 16 | 4.8 | 14.5 | 0.00 | 0.00 | 0.00 | 71 | 1006.0 |
| 20260506122003 | 19 | 27 | 4.8 | 12.9 | 0.00 | 0.00 | 0.00 | 71 | 1006.1 |
| 20260506121003 | 19 | 13 | 4.8 | 9.7 | 0.00 | 0.00 | 0.00 | 71 | 1006.2 |
| 20260506120502 | 19 | 10 | 8.0 | 19.3 | 0.00 | 0.00 | 0.00 | 71 | 1006.4 |
| 20260506120002 | 19 | 6 | 8.0 | 29.0 | 0.00 | 0.00 | 0.00 | 71 | 1006.4 |
| 20260506115503 | 19 | 23 | 3.2 | 11.3 | 0.00 | 0.00 | 0.00 | 71 | 1006.5 |
| 20260506114003 | 19 | 3 | 8.0 | 19.3 | 0.00 | 0.00 | 0.00 | 72 | 1006.5 |
| 20260506112503 | 18 | 32 | 4.8 | 12.9 | 0.00 | 0.00 | 0.00 | 74 | 1006.4 |
| 20260506112003 | 18 | 2 | 8.0 | 14.5 | 0.00 | 0.00 | 0.00 | 74 | 1006.5 |
| 20260506111003 | 18 | 11 | 4.8 | 9.7 | 0.00 | 0.00 | 0.00 | 75 | 1006.3 |
| 20260506110003 | 18 | 24 | 4.8 | 8.0 | 0.00 | 0.00 | 0.00 | 75 | 1006.2 |
| 20260506105503 | 18 | 19 | 4.8 | 12.9 | 0.00 | 0.00 | 0.00 | 75 | 1006.2 |
| 20260506105003 | 18 | 28 | 4.8 | 12.9 | 0.00 | 0.00 | 0.00 | 75 | 1006.2 |
| 20260506104502 | 18 | 12 | 4.8 | 11.3 | 0.00 | 0.00 | 0.00 | 75 | 1006.2 |
| 20260506103502 | 18 | 1 | 4.8 | 16.1 | 0.00 | 0.00 | 0.00 | 75 | 1006.2 |
| 20260506102502 | 18 | 31 | 3.2 | 12.9 | 0.00 | 0.00 | 0.00 | 76 | 1006.2 |
| 20260506101002 | 18 | 10 | 6.4 | 16.1 | 0.00 | 0.00 | 0.00 | 75 | 1006.0 |
| 20260506100503 | 18 | 16 | 4.8 | 14.5 | 0.00 | 0.00 | 0.00 | 75 | 1006.0 |
| 20260506092502 | 18 | 17 | 8.0 | 14.5 | 0.00 | 0.00 | 0.00 | 76 | 1006.0 |
| 20260506092003 | 18 | 10 | 4.8 | 12.9 | 0.00 | 0.00 | 0.00 | 76 | 1006.0 |
| 20260506091504 | 18 | 4 | 4.8 | 12.9 | 0.00 | 0.00 | 0.00 | 76 | 1006.0 |
| 20260506091002 | 18 | 17 | 4.8 | 9.7 | 0.00 | 0.00 | 0.00 | 76 | 1006.1 |
| 20260506090503 | 18 | 15 | 4.8 | 9.7 | 0.00 | 0.00 | 0.00 | 76 | 1006.1 |
| 20260506090003 | 18 | 4 | 4.8 | 14.5 | 0.00 | 0.00 | 0.00 | 76 | 1006.2 |
| 20260506085503 | 18 | 24 | 4.8 | 9.7 | 0.00 | 0.00 | 0.00 | 76 | 1006.1 |
| 20260506085002 | 18 | 16 | 6.4 | 9.7 | 0.00 | 0.00 | 0.00 | 76 | 1006.2 |
| 20260506084003 | 18 | 11 | 3.2 | 4.8 | 0.00 | 0.00 | 0.00 | 76 | 1006.2 |
| 20260506083502 | 18 | 15 | 3.2 | 8.0 | 0.00 | 0.00 | 0.00 | 76 | 1006.2 |
| 20260506083002 | 18 | 17 | 3.2 | 11.3 | 0.00 | 0.00 | 0.00 | 76 | 1006.1 |
| 20260506082503 | 18 | 11 | 4.8 | 12.9 | 0.00 | 0.00 | 0.00 | 76 | 1006.2 |
| 20260506081004 | 18 | 8 | 4.8 | 9.7 | 0.00 | 0.00 | 0.00 | 75 | 1006.3 |
| 20260506080503 | 18 | 11 | 4.8 | 12.9 | 0.00 | 0.00 | 0.00 | 74 | 1006.3 |
| 20260506072003 | 19 | 21 | 1.6 | 8.0 | 0.00 | 0.00 | 0.00 | 71 | 1006.4 |
| 20260506071503 | 19 | 1 | 4.8 | 11.3 | 0.00 | 0.00 | 0.00 | 71 | 1006.5 |
| 20260506062502 | 20 | 12 | 8.0 | 19.3 | 0.00 | 0.00 | 0.00 | 69 | 1006.5 |
| 20260506062003 | 20 | 12 | 4.8 | 11.3 | 0.00 | 0.00 | 0.00 | 68 | 1006.5 |
| 20260506051003 | 20 | 16 | 6.4 | 12.9 | 0.00 | 0.00 | 0.00 | 65 | 1007.1 |
| 20260506050503 | 20 | 10 | 4.8 | 8.0 | 0.00 | 0.00 | 0.00 | 64 | 1007.1 |
| 20260506043503 | 21 | 30 | 6.4 | 19.3 | 0.00 | 0.00 | 0.00 | 63 | 1007.1 |
| 20260506043003 | 21 | 13 | 6.4 | 12.9 | 0.00 | 0.00 | 0.00 | 62 | 1007.1 |
| 20260506042504 | 21 | 6 | 6.4 | 16.1 | 0.00 | 0.00 | 0.00 | 62 | 1007.1 |
| 20260506035503 | 21 | 1 | 8.0 | 22.5 | 0.00 | 0.00 | 0.00 | 60 | 1007.0 |
| 20260506034503 | 21 | 35 | 4.8 | 14.5 | 0.00 | 0.00 | 0.00 | 59 | 1007.1 |
| 20260506033504 | 21 | 4 | 8.0 | 14.5 | 0.00 | 0.00 | 0.00 | 58 | 1007.1 |
| 20260506032003 | 22 | 12 | 8.0 | 16.1 | 0.00 | 0.00 | 0.00 | 57 | 1006.9 |
| 20260506031003 | 22 | 12 | 4.8 | 14.5 | 0.00 | 0.00 | 0.00 | 56 | 1006.8 |
| 20260506030003 | 22 | 1 | 8.0 | 19.3 | 0.00 | 0.00 | 0.00 | 56 | 1006.7 |
| 20260506025003 | 22 | 14 | 8.0 | 16.1 | 0.00 | 0.00 | 0.00 | 56 | 1006.8 |
| 20260506024503 | 22 | 7 | 4.8 | 12.9 | 0.00 | 0.00 | 0.00 | 55 | 1006.8 |
| 20260506024003 | 22 | 17 | 8.0 | 25.7 | 0.00 | 0.00 | 0.00 | 55 | 1006.9 |
| 20260506023504 | 22 | 13 | 8.0 | 14.5 | 0.00 | 0.00 | 0.00 | 55 | 1006.9 |
| 20260506023003 | 22 | 9 | 6.4 | 16.1 | 0.00 | 0.00 | 0.00 | 55 | 1007.0 |
| 20260506022504 | 22 | 18 | 6.4 | 19.3 | 0.00 | 0.00 | 0.00 | 55 | 1007.0 |
| 20260506021502 | 22 | 10 | 6.4 | 16.1 | 0.00 | 0.00 | 0.00 | 55 | 1006.8 |
| 20260506021003 | 22 | 20 | 6.4 | 14.5 | 0.00 | 0.00 | 0.00 | 54 | 1006.8 |
| 20260506020004 | 22 | 9 | 4.8 | 12.9 | 0.00 | 0.00 | 0.00 | 54 | 1006.8 |
| 20260506015504 | 22 | 5 | 4.8 | 19.3 | 0.00 | 0.00 | 0.00 | 54 | 1006.8 |
| 20260506014502 | 22 | 23 | 4.8 | 14.5 | 0.00 | 0.00 | 0.00 | 54 | 1006.8 |
| 20260506014003 | 22 | 17 | 3.2 | 8.0 | 0.00 | 0.00 | 0.00 | 54 | 1006.7 |
| 20260506013503 | 22 | 8 | 4.8 | 11.3 | 0.00 | 0.00 | 0.00 | 53 | 1006.6 |
| 20260506013004 | 23 | 24 | 8.0 | 12.9 | 0.00 | 0.00 | 0.00 | 53 | 1006.6 |
| 20260506012003 | 23 | 11 | 4.8 | 19.3 | 0.00 | 0.00 | 0.00 | 49 | 1006.5 |
| 20260506011003 | 25 | 13 | 6.4 | 11.3 | 0.00 | 0.00 | 0.00 | 43 | 1006.1 |
| 20260506010503 | 25 | 19 | 4.8 | 12.9 | 0.00 | 0.00 | 0.00 | 43 | 1006.1 |
| 20260506004505 | 25 | 0 | 8.0 | 12.9 | 0.00 | 0.00 | 0.00 | 41 | 1005.8 |
| 20260506003003 | 26 | 21 | 8.0 | 20.9 | 0.00 | 0.00 | 0.00 | 40 | 1005.7 |
| 20260506002004 | 26 | 15 | 8.0 | 16.1 | 0.00 | 0.00 | 0.00 | 39 | 1005.7 |
| 20260506001508 | 26 | 23 | 3.2 | 12.9 | 0.00 | 0.00 | 0.00 | 39 | 1005.6 |
| 20260506001011 | 26 | 29 | 8.0 | 19.3 | 0.00 | 0.00 | 0.00 | 38 | 1005.6 |
| 20260505235505 | 26 | 13 | 6.4 | 14.5 | 0.00 | 0.00 | 0.00 | 35 | 1005.4 |
| 20260505235003 | 26 | 7 | 4.8 | 20.9 | 0.00 | 0.00 | 0.00 | 34 | 1005.4 |
| 20260505234503 | 27 | 1 | 8.0 | 19.3 | 0.00 | 0.00 | 0.00 | 34 | 1005.3 |
| 20260505232003 | 27 | 13 | 8.0 | 16.1 | 0.00 | 0.00 | 0.00 | 32 | 1005.0 |
| 20260505231004 | 27 | 10 | 6.4 | 19.3 | 0.00 | 0.00 | 0.00 | 31 | 1004.9 |
| 20260505230503 | 27 | 8 | 8.0 | 19.3 | 0.00 | 0.00 | 0.00 | 31 | 1004.8 |
| 20260505225004 | 27 | 9 | 11.3 | 29.0 | 0.00 | 0.00 | 0.00 | 29 | 1004.7 |
| 20260505224504 | 27 | 354 | 12.9 | 25.7 | 0.00 | 0.00 | 0.00 | 29 | 1004.8 |
| 20260505223503 | 28 | 14 | 9.7 | 19.3 | 0.00 | 0.00 | 0.00 | 28 | 1004.6 |
| 20260505223003 | 28 | 6 | 8.0 | 16.1 | 0.00 | 0.00 | 0.00 | 28 | 1004.5 |
| 20260505222003 | 28 | 22 | 4.8 | 11.3 | 0.00 | 0.00 | 0.00 | 29 | 1004.5 |
| 20260505221503 | 28 | 7 | 9.7 | 19.3 | 0.00 | 0.00 | 0.00 | 28 | 1004.5 |
| 20260505220504 | 28 | 358 | 11.3 | 19.3 | 0.00 | 0.00 | 0.00 | 29 | 1004.5 |
| 20260505220003 | 28 | 15 | 6.4 | 25.7 | 0.00 | 0.00 | 0.00 | 29 | 1004.4 |
| 20260505214504 | 28 | 23 | 8.0 | 24.1 | 0.00 | 0.00 | 0.00 | 30 | 1004.1 |
| 20260505213503 | 28 | 4 | 9.7 | 22.5 | 0.00 | 0.00 | 0.00 | 30 | 1004.1 |
| 20260505213003 | 28 | 2 | 9.7 | 19.3 | 0.00 | 0.00 | 0.00 | 30 | 1004.1 |
| 20260505212505 | 28 | 8 | 12.9 | 25.7 | 0.00 | 0.00 | 0.00 | 29 | 1004.0 |
| 20260505212004 | 28 | 14 | 14.5 | 29.0 | 0.00 | 0.00 | 0.00 | 29 | 1004.2 |
| 20260505211005 | 28 | 15 | 14.5 | 29.0 | 0.00 | 0.00 | 0.00 | 29 | 1004.1 |
| 20260505210503 | 28 | 4 | 11.3 | 22.5 | 0.00 | 0.00 | 0.00 | 30 | 1004.1 |
| 20260505205504 | 28 | 3 | 8.0 | 32.2 | 0.00 | 0.00 | 0.00 | 29 | 1004.0 |
| 20260505204004 | 28 | 10 | 6.4 | 25.7 | 0.00 | 0.00 | 0.00 | 31 | 1003.8 |
| 20260505203504 | 28 | 1 | 11.3 | 22.5 | 0.00 | 0.00 | 0.00 | 31 | 1004.0 |
| 20260505203003 | 28 | 12 | 9.7 | 29.0 | 0.00 | 0.00 | 0.00 | 31 | 1003.9 |
| 20260505202504 | 28 | 14 | 14.5 | 29.0 | 0.00 | 0.00 | 0.00 | 30 | 1003.9 |
| 20260505202004 | 29 | 357 | 11.3 | 22.5 | 0.00 | 0.00 | 0.00 | 31 | 1004.0 |
| 20260505201004 | 29 | 0 | 11.3 | 24.1 | 0.00 | 0.00 | 0.00 | 28 | 1004.0 |
| 20260505200505 | 29 | 33 | 6.4 | 16.1 | 0.00 | 0.00 | 0.00 | 31 | 1004.0 |
| 20260505200004 | 29 | 1 | 9.7 | 20.9 | 0.00 | 0.00 | 0.00 | 30 | 1004.1 |
| 20260505194003 | 29 | 18 | 8.0 | 12.9 | 0.00 | 0.00 | 0.00 | 31 | 1004.5 |
| 20260505192004 | 28 | 31 | 12.9 | 24.1 | 0.00 | 0.00 | 0.00 | 30 | 1005.0 |
| 20260505191003 | 28 | 14 | 9.7 | 27.4 | 0.00 | 0.00 | 0.00 | 31 | 1005.0 |
| 20260505190505 | 28 | 0 | 8.0 | 20.9 | 0.00 | 0.00 | 0.00 | 33 | 1005.1 |
| 20260505190004 | 28 | 3 | 11.3 | 24.1 | 0.00 | 0.00 | 0.00 | 32 | 1005.1 |
| 20260505185503 | 28 | 6 | 11.3 | 22.5 | 0.00 | 0.00 | 0.00 | 32 | 1005.3 |
| 20260505185005 | 28 | 0 | 9.7 | 24.1 | 0.00 | 0.00 | 0.00 | 33 | 1005.3 |
| 20260505184003 | 28 | 34 | 6.4 | 14.5 | 0.00 | 0.00 | 0.00 | 35 | 1005.5 |
| 20260505180508 | 28 | 9 | 9.7 | 20.9 | 0.00 | 0.00 | 0.00 | 36 | 1005.7 |
| 20260505174503 | 28 | 4 | 8.0 | 16.1 | 0.00 | 0.00 | 0.00 | 39 | 1006.0 |
| 20260505173005 | 27 | 8 | 4.8 | 16.1 | 0.00 | 0.00 | 0.00 | 39 | 1005.9 |
| 20260505172503 | 27 | 18 | 3.2 | 12.9 | 0.00 | 0.00 | 0.00 | 42 | 1006.1 |
| 20260505172003 | 27 | 0 | 9.7 | 19.3 | 0.00 | 0.00 | 0.00 | 40 | 1006.2 |
| 20260505171503 | 27 | 15 | 8.0 | 19.3 | 0.00 | 0.00 | 0.00 | 40 | 1006.3 |
| 20260505164504 | 27 | 25 | 8.0 | 14.5 | 0.00 | 0.00 | 0.00 | 42 | 1006.6 |
| 20260505161503 | 26 | 13 | 8.0 | 11.3 | 0.00 | 0.00 | 0.00 | 43 | 1007.0 |
| 20260505161003 | 26 | 15 | 3.2 | 11.3 | 0.00 | 0.00 | 0.00 | 45 | 1007.1 |
| 20260505160503 | 26 | 29 | 3.2 | 16.1 | 0.00 | 0.00 | 0.00 | 45 | 1007.1 |
| 20260505153003 | 24 | 331 | 4.8 | 9.7 | 0.00 | 0.00 | 0.00 | 48 | 1007.5 |
| 20260505152504 | 24 | 14 | 3.2 | 9.7 | 0.00 | 0.00 | 0.00 | 49 | 1007.6 |
| 20260505151004 | 23 | 11 | 4.8 | 11.3 | 0.00 | 0.00 | 0.00 | 50 | 1007.8 |